Regional Weather Roundup
Issued by NWS

Home | Current Version | Previous Version | Graphics & Text | Print | Product List | Glossary On
Versions: 1 2 3 4 5 6 7 8 9 10 11 12 13 14 15 16 17 18 19 20 21 22 23 24 25 26 27 28 29 30 31 32 33 34 35 36 37 38 39 40 41 42 43 44 45 46 47 48 49 50
000
ASUS45 KABQ 251110
RWRNM
NEW MEXICO REGIONAL WEATHER ROUNDUP
NATIONAL WEATHER SERVICE ALBUQUERQUE NM
500 AM MDT SUN JUN 25 2017

NOTE: "FAIR" MEANS FEW OR NO CLOUDS BELOW 12,000 FEET AGL WITH NO
       SIGNIFICANT WEATHER OR OBSTRUCTIONS TO VISION.

      THIS PRODUCT IS RELEASED AS TWO VERSIONS.  ONE VERSION NEAR
      THE TOP OF THE HOUR CONTAINING PRELIMINARY DATA FROM ALBUQUERQUE
      AND OTHER STATIONS.  A FINAL VERSION WITH ADDITIONAL DATA IS
      ISSUED ABOUT 10 MINUTES AFTER THE HOUR.

NMZ501-503-504-510>518-251200-
NORTHWEST PLATEAU/NORTHCENTRAL MOUNTAINS

CITY           SKY/WX    TMP DP  RH WIND       PRES   REMARKS
FARMINGTON     FAIR      60  26  27 E8        30.20R
LOS ALAMOS     CLOUDY    60  54  79 S9G18     30.42S
SANTA FE       FAIR      62  56  80 SE16      30.36R
TAOS           FAIR      55  43  62 CALM      30.41S
ANGEL FIRE     FAIR      50  48  93 SW3       30.48F

$$
NMZ402-403-502-505>509-251200-
WESTCENTRAL MOUNTAINS/SOUTHWEST MOUNTAINS

CITY           SKY/WX    TMP DP  RH WIND       PRES   REMARKS
GALLUP         FAIR      58  39  49 E3        30.27R
GRANTS         FAIR      61  46  58 S16G22    30.32S
SILVER CITY    FAIR      60  56  86 CALM      30.30S

$$
NMZ407-409-411-412-251200-
SOUTHERN DESERTS

CITY           SKY/WX    TMP DP  RH WIND       PRES   REMARKS
DEMING         FAIR      65  60  84 NW7       30.23R
LAS CRUCES     FAIR      66  59  77 NE5       30.23F
HOLLOMAN AFB   FAIR      68  58  71 NE5       30.22F
ALAMOGORDO     FAIR      68  57  68 S5        30.22S
T OR C         FAIR      64  56  75 W5        30.25S

$$
NMZ519>523-251200-
CENTRAL VALLEYS/CENTRAL HIGHLANDS

CITY           SKY/WX    TMP DP  RH WIND       PRES   REMARKS
ALBUQUERQUE    FAIR      67  55  65 E9        30.28S
DOUBLE EAGLE   FAIR      57  49  76 CALM      30.31S
MORIARTY ARPT  FAIR      55  53  90 NW5       30.37S
CLINES CORNERS CLOUDY    60  54  80 SE15G22   30.42R
BELEN          FAIR      61  48  60 CALM      30.27R
SOCORRO        FAIR      61  53  73 SE9       30.25R

$$
NMZ524>526-539-540-251200-
SOUTHCENTRAL MOUNTAINS

CITY           SKY/WX    TMP DP  RH WIND       PRES   REMARKS
RUIDOSO        CLOUDY    57  55  94 SE7       30.43R

$$
NMZ527>531-251200-
NORTHEAST HIGHLANDS/NORTHEAST PLAINS

CITY           SKY/WX    TMP DP  RH WIND       PRES   REMARKS
LAS VEGAS      CLOUDY    59  54  83 S10       30.41S
RATON          CLOUDY    58  57  97 SW5       30.37F FOG
CLAYTON        CLOUDY    59  59 100 S7        30.34R FOG

$$
NMZ532>537-251200-
EASTCENTRAL PLAINS

CITY           SKY/WX    TMP DP  RH WIND       PRES   REMARKS
SANTA ROSA     CLOUDY    64  59  84 SE10      30.31S
TUCUMCARI      CLOUDY    65  63  93 SE6       30.27S
CANNON AFB     TSTM      61  61 100 SE24G30   30.30F FOG
CLOVIS AIRPORT LGT RAIN  62  61  96 SE10      30.31S

$$
NMZ028-029-538-251200-
SOUTHEAST PLAINS

CITY           SKY/WX    TMP DP  RH WIND       PRES   REMARKS
ROSWELL        FAIR      70  62  76 SE12      30.24R
ARTESIA        FAIR      70  66  88 SE13      30.23R
CARLSBAD       FAIR      72  66  81 SE14      30.20S
HOBBS          CLOUDY    66  64  94 E10       30.26S


$$




USA.gov is the U.S. government's official web portal to all federal, state and local government web resources and services.